Vertical_Velocity
2 1 2 2 2 1 2 3 3 3 3 3 4 3 3 5 2 -12 24 3 -6 -17 9 -12 1 -6 4 -2 13 8 3 -5 6 -6 0 3 -3 1 -5 10 2 2 -4 -1 4 3 -8 5 -3 3 -1 0 3 2
3 5 4 3 3 2 3 3 3 2 4 3 3 2 4 4 2 -1 -1 -4 -3 -11 -14 -8 -0 -15 -0 -7 -11 -7 0 2 -3 5 -4 5 -1 8 10 -6 1 -12 4 2 5 4 -2 0 -0 1 1 3 2 -2
3 1 4 4 5 4 3 3 2 1 3 4 3 1 5 2 3 -2 1 8 -8 -10 4 3 -4 4 4 1 -6 -14 10 -7 -1 18 12 6 2 5 -2 1 -4 -1 0 2 5 4 2 -3 -1 6 6 5 -1 -3
0 3 2 2 2 1 2 1 1 0 2 3 3 2 1 2 -1 -2 1 12 -2 -9 -7 -9 2 -8 3 -6 -12 7 3 8 15 14 9 3 -2 9 -1 -5 -3 3 2 7 6 0 5 0 2 4 -2 -7 -4 -2
-0 2 3 -0 1 4 1 0 2 2 2 4 5 5 4 4 4 -1 1 -2 -11 8 -15 4 -2 -6 -3 -10 26 8 2 8 11 8 1 -1 -1 1 -1 -0 4 -1 1 5 2 8 6 3 -1 -6 -1 0 2 -2
7 -7 3 1 2 2 -0 1 0 2 2 1 0 1 -0 -2 1 0 -6 -11 -0 -4 -4 3 13 -6 7 -2 9 -6 -2 0 3 6 4 -1 0 6 -2 -0 1 -3 3 8 1 2 3 0 1 2 2 -1 -1 -3
-4 -2 1 1 -0 -0 0 -0 -2 -4 1 10 12 22 14 6 -2 -5 -9 10 9 -2 4 -5 -19 0 1 2 -0 3 8 3 5 4 -2 -0 4 4 -0 -4 14 -6 4 4 5 2 1 -2 -1 -4 -3 -1 -2 -5
0 1 2 1 -1 -2 7 7 4 7 13 13 11 9 6 8 5 -5 -0 18 6 6 6 -12 -12 -1 -13 -7 3 4 4 7 7 5 -0 4 4 0 -5 4 6 5 4 -3 -1 -1 2 -0 2 0 -6 -4 0 0
1 -0 4 -0 6 11 11 8 7 7 4 7 5 8 12 3 -9 -6 15 -1 -8 -18 -6 -6 0 2 -1 4 15 11 10 3 8 2 2 4 3 3 -4 8 12 1 -3 -2 2 1 -1 -2 -10 -8 -2 5 -2 -0
3 8 11 12 13 10 8 6 4 5 5 4 7 -10 -5 -4 11 8 -2 -0 -7 -12 -6 -11 7 -3 1 5 3 6 9 9 -3 1 -0 1 3 2 5 4 0 0 1 -1 0 1 -10 -13 -1 3 -0 3 -4 -2
7 1 -1 -2 -1 0 1 3 5 2 1 -2 -12 -6 -3 -5 11 11 -2 -9 -12 -14 -16 -9 -9 1 10 8 12 14 6 4 -0 3 0 2 3 4 -1 1 1 -1 -0 -0 -5 -9 -2 7 1 5 -1 -1 -2 -5
-3 -2 -0 2 4 2 3 1 2 1 -0 1 5 10 9 12 15 9 -2 -5 -12 -7 -5 5 6 7 12 13 8 6 1 -1 1 3 1 3 7 -1 3 -3 -0 -5 -8 -3 -1 2 -3 -1 0 -4 -3 -3 -3 -3
-1 1 3 3 2 2 2 1 1 3 -2 10 16 15 12 -3 -2 -21 -30 -19 -19 -12 -4 -0 2 7 -2 7 5 2 1 2 4 3 2 3 -4 -0 0 -4 -4 -3 -5 8 4 -2 0 -0 -3 1 -2 -5 -3 -2
-4 -3 -4 -1 -2 -1 2 2 1 6 12 11 2 2 -16 -3 -4 2 -1 -3 8 16 10 12 7 4 8 7 2 2 5 4 3 -2 0 -5 -2 -4 -1 -1 -4 1 6 -0 -0 -2 -4 -2 0 -3 -5 -4 -2 -1
-2 1 -2 -6 -4 0 -2 2 -1 -1 -3 -7 -4 -6 -5 -1 4 1 7 7 -3 2 3 4 9 11 11 4 5 4 4 -6 -2 1 -4 -2 0 2 3 3 3 2 -4 -5 -1 -2 -4 -0 -4 -4 -2 -0 -1 -2
-8 -9 -3 7 4 1 1 -6 -3 9 7 3 4 -2 1 1 -3 -1 -3 -4 5 4 3 5 3 3 2 1 6 -3 -3 1 -4 -0 3 2 -2 -1 2 -0 0 -2 -4 -2 -2 -2 -0 -2 -2 -1 1 -2 -4 -5
14 16 -3 7 3 2 -0 4 12 7 1 2 -3 4 6 -1 6 4 3 2 6 7 2 0 -0 -1 6 -0 -4 3 0 1 1 1 2 2 -3 -1 -2 -3 -4 -5 -1 -1 -2 -1 -2 -1 0 0 -2 -4 -5 -6
7 -5 -1 1 -3 -4 3 6 6 1 2 3 1 -0 4 5 2 -1 -1 -2 1 4 6 4 7 1 2 6 3 -3 -1 -2 -2 -0 -1 -3 -3 -3 -3 -4 -3 -0 -0 -3 -1 -1 0 1 1 -2 -2 -3 -4 -6
8 4 -3 2 3 12 3 -2 1 0 3 12 8 3 1 0 -1 9 15 8 3 1 3 -0 -1 4 -1 -3 0 -0 2 3 1 -1 -2 -1 -1 -4 -4 -4 -1 0 -1 -1 -1 0 2 1 -1 -2 -2 -3 -4 -4
-5 -6 -5 -7 3 4 7 2 3 4 10 17 9 4 4 2 2 4 3 1 -0 0 3 3 -1 -1 -2 -1 1 1 2 1 1 -1 -2 -3 -1 -1 -2 -1 0 -1 -3 -1 1 2 0 -0 0 -1 -3 -4 -5 -4
7 8 7 7 6 -0 3 5 2 8 3 -0 -3 -1 1 -0 1 2 1 1 1 3 -2 0 1 0 3 0 1 2 -2 -0 -2 -2 -1 -1 -4 -3 -2 -0 -2 -3 0 0 1 1 -0 -2 -2 -2 -3 -5 -5 -5
3 7 6 3 6 7 7 3 7 5 5 6 0 0 -0 0 2 2 2 0 -3 -3 0 1 -1 -1 -2 2 3 -1 -2 -4 -3 -1 -2 -2 -2 1 -0 -3 -2 -0 -2 -0 0 -1 -2 -2 -2 -4 -4 -4 -4 -4
4 3 1 -1 -2 -1 2 0 0 2 3 -0 -1 -1 -2 -1 1 -2 -1 0 0 1 -0 0 1 0 2 -0 -3 -2 -1 0 -0 -3 -4 -2 -1 -3 -3 -1 -1 -2 -1 1 -0 -1 -1 -1 -2 -3 -2 -2 -3 -3
4 -3 -1 -1 -0 -0 0 1 -1 1 -0 3 4 -1 -4 -1 3 5 4 -1 -0 -3 3 3 2 1 -1 -1 -1 2 -3 -3 -1 -2 0 0 0 -1 -2 -2 -1 0 0 -1 -1 -2 -3 -3 -3 -2 -2 -1 -1 -2
2 1 3 1 -0 -1 -0 -2 -3 -2 -0 1 3 4 2 2 3 1 0 -3 1 1 0 2 1 -3 -2 3 2 -4 -6 -2 -2 2 0 -0 -2 -2 -0 1 -0 -1 -1 -2 -2 -3 -3 -2 -3 -2 -1 -2 -1 -1
-2 -3 -0 1 0 -1 -1 0 2 1 0 0 2 -1 -2 -1 1 -1 -0 1 3 1 0 0 -0 2 2 -4 -4 -2 -2 -1 0 -1 0 -1 -0 1 -0 -1 -1 -1 -3 -1 -1 -2 -2 -2 -2 -1 -0 -0 -0 -0
-1 1 1 1 0 3 2 -1 -3 -1 -2 -2 -2 -2 -1 2 4 3 4 3 -1 -1 3 1 1 -1 -4 -5 -2 -1 0 1 -2 -0 1 -0 -1 -1 -1 -1 -3 -3 -1 -2 -2 -1 -2 -2 -2 -2 -2 0 -0 -0
1 1 -0 0 -2 -3 -3 0 1 -0 -0 -1 1 1 2 4 3 -1 -1 1 1 0 2 -0 -3 -4 -3 0 -0 -0 -1 -1 -0 1 -0 -0 -1 -2 -1 -1 -1 -1 -0 -1 -2 -2 -2 -1 -1 -1 -1 -0 -0 -2
0 -1 -0 2 2 2 6 0 3 7 2 4 1 2 -2 -4 -1 -0 -1 -2 -2 -2 -2 -1 -2 0 0 -1 -1 -1 1 2 1 1 -0 -2 -2 -2 -3 -1 -2 -2 -1 -1 -2 -2 -2 -2 -2 -1 0 0 0 -0
-1 -0 1 0 0 1 1 -0 -2 -5 -4 -5 -1 0 2 1 -1 -1 -1 -1 -1 -1 0 0 0 -0 -1 -1 2 2 1 1 -0 -1 -3 -3 -1 -1 -3 -2 -1 -1 -2 -3 -2 -1 -2 -1 -1 -2 -1 -0 -0 0
1 1 -1 -1 1 -0 0 1 2 -1 -0 0 0 -1 1 0 -0 -1 -2 -1 0 -0 -1 -0 -0 0 1 2 2 1 1 0 -0 -1 -2 -2 -2 -0 0 -1 -3 -2 -2 -1 -1 -3 -3 -2 -1 -1 -2 -3 -2 -2
3 2 2 1 0 -0 -1 -2 -2 -2 -1 1 1 1 1 1 1 2 1 1 1 1 2 1 1 2 2 1 0 -1 -1 -1 -2 -2 -1 -0 -0 -1 -1 -2 -2 -2 -1 -1 -1 -1 -1 -0 0 -0 0 1 1 1
-1 0 1 1 -0 0 0 0 1 1 1 1 1 1 1 2 1 0 0 2 2 0 -0 0 1 1 0 -1 -1 -2 -2 -2 -1 -1 -1 -0 -1 -1 -1 -2 -1 -1 -1 -0 -0 -0 -1 -1 -1 -1 -2 -2 -1 1
Height
5261 5273 5287 5301 5315 5329 5343 5358 5373 5387 5400 5413 5426 5439 5452 5467 5481 5496 5513 5523 5538 5554 5566 5573 5583 5593 5602 5607 5609 5616 5624 5624 5631 5636 5637 5638 5639 5639 5639 5642 5642 5641 5641 5638 5637 5633 5630 5628 5625 5621 5615 5609 5604 5598
5244 5256 5270 5284 5298 5313 5328 5343 5358 5373 5387 5400 5413 5426 5441 5455 5469 5481 5498 5514 5528 5540 5554 5563 5572 5582 5591 5600 5604 5607 5614 5619 5623 5625 5628 5630 5628 5629 5632 5631 5631 5628 5631 5630 5629 5624 5619 5617 5612 5607 5602 5596 5591 5584
5231 5245 5258 5272 5286 5300 5315 5329 5344 5359 5373 5387 5400 5414 5428 5442 5456 5472 5488 5502 5514 5531 5544 5552 5563 5572 5584 5592 5595 5600 5606 5611 5615 5620 5621 5619 5620 5622 5622 5622 5622 5621 5619 5617 5617 5613 5608 5604 5598 5594 5589 5583 5577 5570
5220 5236 5251 5265 5279 5293 5307 5320 5333 5347 5361 5375 5388 5403 5417 5431 5445 5459 5478 5494 5504 5521 5530 5544 5554 5562 5575 5584 5591 5593 5598 5603 5608 5611 5611 5612 5614 5615 5613 5611 5612 5612 5610 5607 5605 5601 5597 5591 5585 5580 5574 5569 5562 5555
5215 5231 5245 5258 5272 5288 5301 5314 5327 5339 5352 5366 5379 5393 5406 5421 5435 5450 5465 5480 5496 5510 5521 5536 5544 5555 5567 5577 5581 5585 5591 5596 5600 5601 5603 5604 5605 5605 5603 5603 5601 5601 5599 5597 5594 5590 5586 5580 5574 5569 5564 5558 5551 5543
5212 5228 5242 5256 5271 5286 5299 5312 5324 5337 5350 5363 5376 5390 5402 5415 5424 5438 5451 5465 5481 5494 5515 5522 5535 5549 5557 5567 5573 5579 5582 5586 5590 5592 5594 5595 5596 5597 5594 5593 5592 5590 5588 5587 5583 5578 5572 5570 5565 5560 5555 5547 5537 5527
5223 5235 5247 5260 5274 5287 5300 5312 5325 5338 5351 5364 5377 5390 5402 5411 5419 5431 5446 5465 5480 5494 5503 5514 5527 5542 5552 5562 5566 5570 5574 5578 5582 5583 5585 5586 5587 5587 5585 5583 5584 5579 5578 5575 5571 5569 5565 5560 5555 5548 5540 5532 5524 5514
5233 5243 5255 5266 5279 5291 5303 5316 5328 5340 5353 5365 5377 5388 5399 5408 5417 5426 5446 5462 5473 5484 5497 5510 5524 5539 5548 5554 5556 5563 5567 5571 5574 5576 5577 5577 5577 5576 5575 5574 5575 5572 5568 5565 5562 5560 5556 5550 5543 5537 5531 5522 5512 5501
5244 5254 5264 5275 5286 5297 5309 5320 5331 5342 5353 5365 5376 5387 5395 5404 5417 5434 5450 5458 5470 5482 5492 5505 5520 5531 5540 5543 5551 5557 5561 5564 5566 5567 5569 5569 5568 5567 5566 5566 5568 5564 5561 5559 5556 5551 5546 5540 5534 5527 5517 5508 5497 5486
5255 5264 5274 5284 5294 5303 5313 5324 5334 5344 5355 5365 5376 5386 5398 5411 5427 5437 5448 5459 5467 5475 5489 5501 5514 5525 5534 5542 5546 5552 5554 5556 5557 5561 5560 5560 5559 5560 5559 5560 5559 5555 5553 5551 5548 5544 5538 5530 5522 5513 5504 5494 5482 5470
5265 5274 5283 5292 5301 5309 5318 5327 5337 5347 5357 5368 5378 5389 5402 5414 5425 5435 5446 5453 5462 5474 5485 5501 5514 5523 5530 5536 5540 5544 5546 5548 5550 5553 5553 5552 5553 5553 5552 5553 5550 5549 5547 5544 5540 5534 5526 5519 5510 5500 5489 5479 5467 5455
5276 5284 5292 5300 5307 5314 5324 5334 5344 5356 5366 5377 5386 5396 5407 5415 5426 5435 5442 5453 5463 5475 5488 5501 5511 5518 5525 5530 5533 5537 5539 5541 5540 5545 5544 5545 5548 5547 5548 5545 5544 5542 5540 5534 5527 5520 5513 5505 5497 5487 5476 5465 5453 5439
5285 5293 5300 5306 5315 5323 5332 5342 5352 5361 5370 5379 5387 5395 5406 5415 5424 5433 5441 5453 5461 5475 5488 5498 5506 5513 5518 5524 5528 5530 5531 5534 5536 5536 5539 5542 5541 5541 5540 5539 5538 5533 5526 5522 5518 5510 5503 5495 5485 5475 5464 5451 5439 5427
5294 5301 5308 5315 5322 5330 5338 5347 5357 5366 5374 5381 5389 5399 5409 5417 5423 5433 5446 5461 5473 5482 5490 5497 5503 5508 5515 5519 5522 5523 5526 5529 5530 5534 5536 5535 5535 5534 5533 5531 5526 5521 5519 5514 5507 5500 5491 5483 5474 5464 5452 5442 5430 5417
5302 5307 5313 5320 5327 5335 5346 5355 5364 5373 5380 5387 5395 5404 5412 5423 5433 5444 5456 5466 5472 5479 5486 5492 5499 5505 5511 5512 5516 5520 5522 5525 5528 5529 5528 5529 5528 5525 5523 5520 5518 5514 5509 5503 5497 5490 5481 5473 5463 5453 5444 5433 5421 5408
5309 5313 5316 5324 5336 5345 5354 5361 5369 5376 5383 5392 5401 5410 5420 5429 5439 5448 5456 5463 5471 5477 5483 5489 5494 5499 5504 5508 5512 5515 5519 5521 5521 5522 5522 5521 5520 5518 5516 5514 5509 5506 5501 5494 5487 5480 5473 5464 5455 5447 5436 5425 5413 5401
5313 5320 5325 5334 5343 5351 5359 5367 5374 5381 5388 5398 5409 5419 5429 5437 5444 5451 5458 5465 5471 5476 5481 5486 5490 5495 5501 5505 5510 5511 5513 5514 5516 5516 5515 5515 5515 5512 5509 5505 5501 5497 5492 5485 5478 5472 5465 5457 5448 5438 5428 5417 5406 5393
5322 5329 5335 5343 5350 5357 5363 5370 5378 5385 5396 5406 5415 5424 5429 5437 5444 5450 5458 5464 5470 5475 5479 5485 5491 5497 5501 5503 5504 5507 5509 5511 5511 5510 5511 5510 5508 5505 5502 5498 5494 5489 5483 5477 5470 5464 5458 5449 5441 5432 5422 5411 5400 5387
5332 5339 5345 5351 5357 5364 5369 5376 5384 5392 5400 5410 5418 5424 5430 5436 5444 5452 5459 5465 5470 5474 5480 5486 5491 5493 5496 5498 5503 5504 5505 5505 5506 5507 5506 5504 5502 5499 5496 5491 5487 5481 5475 5469 5463 5457 5450 5442 5434 5425 5415 5405 5395 5384
5343 5348 5353 5360 5366 5371 5377 5382 5388 5398 5405 5414 5420 5426 5433 5439 5447 5453 5458 5464 5470 5476 5481 5484 5488 5491 5494 5497 5498 5499 5500 5502 5502 5502 5501 5499 5495 5492 5487 5482 5478 5473 5467 5462 5457 5450 5443 5435 5427 5419 5410 5401 5391 5381
5348 5353 5358 5363 5370 5376 5383 5390 5397 5405 5412 5418 5422 5429 5435 5442 5448 5455 5462 5467 5471 5476 5478 5482 5486 5488 5492 5494 5495 5496 5497 5497 5497 5496 5494 5491 5488 5483 5479 5475 5470 5466 5461 5455 5450 5443 5436 5428 5421 5413 5405 5397 5388 5377
5358 5362 5366 5372 5379 5386 5394 5401 5408 5413 5419 5424 5430 5436 5442 5447 5452 5456 5461 5466 5470 5474 5478 5481 5483 5487 5489 5489 5491 5494 5492 5492 5491 5489 5487 5484 5479 5476 5472 5468 5464 5459 5454 5449 5443 5436 5429 5422 5415 5408 5400 5392 5384 5374
5364 5369 5376 5382 5389 5394 5401 5407 5413 5419 5425 5429 5433 5438 5443 5449 5453 5457 5460 5465 5468 5472 5476 5480 5483 5484 5486 5488 5489 5488 5488 5487 5485 5483 5480 5475 5472 5468 5465 5462 5457 5452 5447 5442 5436 5429 5422 5415 5409 5403 5396 5388 5380 5371
5375 5379 5385 5390 5395 5401 5406 5411 5416 5422 5425 5431 5436 5440 5445 5449 5453 5457 5462 5466 5469 5473 5476 5476 5478 5480 5482 5483 5484 5482 5480 5479 5479 5476 5473 5469 5466 5463 5459 5454 5450 5446 5440 5435 5429 5423 5416 5410 5404 5398 5391 5384 5376 5368
5383 5388 5393 5396 5400 5405 5409 5415 5419 5424 5428 5433 5437 5441 5446 5451 5455 5459 5463 5467 5468 5468 5471 5474 5476 5477 5479 5477 5476 5475 5475 5474 5472 5469 5465 5462 5460 5456 5452 5448 5443 5438 5433 5428 5422 5417 5411 5405 5399 5393 5386 5380 5372 5364
5388 5392 5396 5399 5403 5407 5411 5415 5419 5424 5429 5434 5439 5444 5447 5451 5455 5458 5460 5461 5463 5466 5469 5471 5472 5473 5471 5470 5471 5472 5469 5467 5465 5461 5459 5456 5453 5449 5445 5441 5436 5431 5426 5422 5417 5411 5405 5399 5393 5387 5381 5375 5368 5361
5390 5394 5398 5402 5406 5410 5415 5418 5423 5427 5431 5435 5439 5443 5446 5450 5452 5454 5457 5460 5463 5463 5464 5466 5467 5466 5466 5466 5465 5464 5463 5460 5457 5456 5453 5449 5446 5442 5438 5434 5429 5425 5421 5416 5410 5405 5399 5394 5388 5382 5376 5370 5364 5357
5393 5396 5400 5403 5407 5411 5415 5420 5424 5428 5431 5436 5440 5443 5446 5448 5451 5453 5455 5456 5456 5458 5460 5460 5461 5461 5461 5460 5459 5457 5455 5453 5451 5448 5444 5441 5438 5434 5431 5427 5423 5419 5414 5409 5404 5399 5394 5388 5382 5376 5371 5365 5359 5353
5392 5396 5401 5405 5409 5414 5418 5422 5424 5428 5432 5435 5439 5441 5444 5445 5447 5448 5449 5451 5452 5453 5454 5455 5456 5455 5454 5453 5451 5449 5448 5446 5443 5440 5437 5434 5430 5427 5423 5420 5416 5412 5408 5403 5398 5392 5387 5382 5376 5370 5365 5360 5354 5349
5393 5397 5401 5405 5409 5412 5415 5420 5424 5427 5431 5434 5436 5437 5439 5441 5443 5444 5445 5447 5448 5449 5449 5449 5448 5447 5446 5444 5444 5443 5440 5438 5435 5433 5429 5426 5423 5420 5416 5413 5410 5405 5400 5396 5391 5386 5380 5375 5370 5365 5359 5354 5349 5344
5392 5397 5401 5405 5408 5412 5416 5419 5423 5425 5427 5429 5431 5434 5436 5437 5438 5439 5440 5440 5441 5441 5442 5441 5440 5439 5439 5437 5436 5434 5432 5430 5427 5424 5421 5418 5415 5412 5409 5406 5402 5398 5393 5388 5384 5379 5374 5369 5364 5359 5354 5348 5343 5338
5392 5395 5399 5402 5406 5410 5413 5416 5418 5421 5423 5425 5427 5428 5430 5431 5432 5433 5433 5433 5434 5434 5434 5434 5433 5432 5430 5428 5427 5425 5423 5421 5418 5416 5413 5410 5407 5404 5402 5398 5395 5391 5386 5381 5377 5372 5367 5362 5357 5352 5347 5343 5338 5333
5390 5394 5397 5401 5404 5407 5409 5412 5414 5416 5417 5418 5420 5421 5422 5423 5423 5424 5424 5425 5426 5426 5426 5425 5423 5422 5421 5420 5418 5416 5414 5412 5410 5407 5405 5402 5399 5396 5394 5391 5387 5383 5378 5374 5369 5364 5360 5355 5351 5346 5341 5336 5331 5327